This is the latest recevied weather packets stored in our database for station/object KE6YLF. If no packets are shown the sender has not sent any weather packets the latest 10 day(s).
| Time | Temp. | Humidity | Pressure | Rain* | Wind** | Luminosity | Snow |
|---|---|---|---|---|---|---|---|
| 1788551792 | 37.78° C | 32% | 1075.9 hPa | 0 mm | - | - | - |
| 1788551492 | 37.22° C | 32% | 1076 hPa | 0 mm | - | - | - |
| 1788551185 | 36.67° C | 31% | 1075.9 hPa | 0 mm | - | - | - |
| 1788550880 | 36.67° C | 31% | 1076.1 hPa | 0 mm | - | - | - |
| 1788550575 | 37.22° C | 32% | 1076.4 hPa | 0 mm | - | - | - |
| 1788550272 | 37.22° C | 31% | 1076.1 hPa | 0 mm | - | - | - |
| 1788549972 | 36.67° C | 32% | 1076.3 hPa | 0 mm | - | - | - |
| 1788549668 | 36.11° C | 32% | 1076.4 hPa | 0 mm | - | - | - |
| 1788549364 | 36.11° C | 32% | 1076.6 hPa | 0 mm | - | - | - |
| 1788549060 | 37.22° C | 32% | 1076.4 hPa | 0 mm | - | - | - |
| 1788548756 | 36.67° C | 32% | 1076.4 hPa | 0 mm | - | - | - |
| 1788548452 | 36.11° C | 32% | 1076.6 hPa | 0 mm | - | - | - |
| 1788548148 | 36.67° C | 32% | 1076.9 hPa | 0 mm | - | - | - |
| 1788547848 | 36.67° C | 32% | 1076.6 hPa | 0 mm | - | - | - |
| 1788547543 | 36.11° C | 32% | 1076.9 hPa | 0 mm | - | - | - |
| 1788547238 | 35.56° C | 34% | 1076.9 hPa | 0 mm | - | - | - |
| 1788546938 | 36.11° C | 34% | 1076.9 hPa | 0 mm | - | - | - |
| 1788546633 | 36.11° C | 34% | 1077 hPa | 0 mm | - | - | - |
| 1788546329 | 35.56° C | 34% | 1077.1 hPa | 0 mm | - | - | - |
| 1788546029 | 35° C | 34% | 1077.2 hPa | 0 mm | - | - | - |
| 1788545725 | 35.56° C | 34% | 1077.1 hPa | 0 mm | - | - | - |
| 1788545424 | 35.56° C | 35% | 1077.2 hPa | 0 mm | - | - | - |
| 1788545119 | 35° C | 35% | 1077.2 hPa | 0 mm | - | - | - |
| 1788544814 | 35° C | 36% | 1077.4 hPa | 0 mm | - | - | - |
| 1788544508 | 35° C | 35% | 1077.3 hPa | 0 mm | - | - | - |
* Rain latest hour (hover to see other rain measurements)
** Current wind speed in m/s (hover to see current wind gust speed)